North Canton, OH

12:01 AM EST on February 13, 2016 (GMT -0500)
Akron-Canton Regional

Weather History for KCAK - October, 2012

Change the Weather History Date:

Friday, October 19, 2012

  Actual Average Record
Temperature  
Mean Temperature 54 °F 51 °F  
Max Temperature 63 °F 60 °F 82 °F (1953)
Min Temperature 45 °F 41 °F 27 °F (1896)
Degree Days  
Heating Degree Days 11 14  
Month to date heating degree days 227 220  
Since 1 July heating degree days 374 359  
Cooling Degree Days 0 0  
Month to date cooling degree days 3 3  
Year to date cooling degree days 1041 649  
Growing Degree Days 4 (Base 50)    
Moisture  
Dew Point 39 °F    
Average Humidity 59    
Maximum Humidity 86    
Minimum Humidity 32    
Precipitation  
Precipitation 0.11 in 0.09 in 1.67 in (2011)
Month to date precipitation 1.57 1.73  
Year to date precipitation 29.25 32.38  
Snow  
Snow 0.00 in 0.00 in - ()
Month to date snowfall 0.0 0.1  
Since 1 July snowfall 0.0 0.1  
Since 1 September snowfall 0.0 0.1  
Snow Depth 0.00 in    
Sea Level Pressure  
Sea Level Pressure 29.68 in    
Wind  
Wind Speed 13 mph (South)    
Max Wind Speed 24 mph    
Max Gust Speed 32 mph    
Visibility 9 miles    
Events Rain    
T = Trace of Precipitation, MM = Missing Value Source: NWS Daily Summary

Daily Weather History Graph

Daily Weather History Graph

Search for Another Location

Airport or City:

Trip Planner

Search our weather history database for the weather conditions in past years. The results will help you decide how hot, cold, wet, or windy it might be!

Date:

Astronomy

Oct. 19, 2012 Rise Set
Actual Time 7:42 AM EDT 6:38 PM EDT
Civil Twilight 7:14 AM EDT 7:06 PM EDT
Nautical Twilight 6:42 AM EDT 7:38 PM EDT
Astronomical Twilight 6:10 AM EDT 8:10 PM EDT
Moon 12:25 PM EDT (10/19) 10:13 PM EDT (10/19)
Length of Visible Light 11h 52m
Length of Day
10h 56m
Waxing Crescent, 23% of the Moon is Illuminated
Oct 19
Waxing Crescent
Oct 21
First Quarter
Oct 29
Full
Nov 6
Last Quarter
Nov 13
New

Hourly Weather History & Observations

Time (EDT) Temp. Windchill Dew Point Humidity Pressure Visibility Wind Dir Wind Speed Gust Speed Precip Events Conditions
12:51 AM 46.9 °F - 42.1 °F 83% 29.76 in 9.0 mi SSE 10.4 mph - N/A   Clear
1:51 AM 46.9 °F - 42.1 °F 83% 29.75 in 10.0 mi SSE 9.2 mph - N/A   Clear
2:51 AM 46.0 °F 41.4 °F 41.0 °F 83% 29.74 in 9.0 mi SE 9.2 mph - N/A   Clear
3:51 AM 46.0 °F 41.4 °F 41.0 °F 83% 29.73 in 8.0 mi SE 9.2 mph - N/A   Mostly Cloudy
4:51 AM 46.9 °F - 41.0 °F 80% 29.70 in 8.0 mi SE 11.5 mph - N/A   Overcast
5:51 AM 46.9 °F - 42.1 °F 83% 29.70 in 9.0 mi SE 11.5 mph - N/A   Overcast
6:51 AM 46.9 °F - 42.1 °F 83% 29.71 in 8.0 mi SSE 11.5 mph - N/A   Overcast
7:51 AM 46.9 °F - 41.0 °F 80% 29.70 in 8.0 mi SE 10.4 mph - N/A   Overcast
8:51 AM 46.9 °F - 42.1 °F 83% 29.70 in 8.0 mi SE 11.5 mph - N/A   Mostly Cloudy
9:51 AM 51.1 °F - 43.0 °F 74% 29.69 in 8.0 mi South 12.7 mph - N/A   Mostly Cloudy
10:51 AM 55.0 °F - 43.0 °F 64% 29.68 in 8.0 mi South 10.4 mph 18.4 mph N/A   Mostly Cloudy
11:51 AM 57.9 °F - 39.0 °F 49% 29.66 in 10.0 mi South 16.1 mph 20.7 mph N/A   Mostly Cloudy
12:51 PM 61.0 °F - 37.0 °F 41% 29.64 in 8.0 mi South 15.0 mph - N/A   Mostly Cloudy
1:51 PM 61.0 °F - 33.1 °F 35% 29.62 in 10.0 mi South 17.3 mph 23.0 mph N/A   Mostly Cloudy
2:51 PM 61.0 °F - 32.0 °F 34% 29.60 in 10.0 mi South 15.0 mph - N/A   Mostly Cloudy
3:51 PM 61.0 °F - 30.0 °F 31% 29.60 in 10.0 mi SSW 15.0 mph - N/A   Overcast
4:51 PM 60.1 °F - 30.9 °F 33% 29.59 in 10.0 mi SW 15.0 mph - N/A   Overcast
5:51 PM 57.9 °F - 32.0 °F 37% 29.62 in 9.0 mi SW 19.6 mph 25.3 mph N/A   Overcast
6:51 PM 52.0 °F - 39.9 °F 63% 29.67 in 8.0 mi WSW 16.1 mph 26.5 mph 0.00 in Rain Light Rain
7:51 PM 48.0 °F - 43.0 °F 83% 29.68 in 6.0 mi WSW 9.2 mph - 0.03 in Rain Light Rain
8:51 PM 46.9 °F - 42.1 °F 83% 29.68 in 6.0 mi SSW 13.8 mph - 0.03 in Rain Light Rain
9:51 PM 46.0 °F 41.0 °F 42.1 °F 86% 29.68 in 9.0 mi SSW 10.4 mph - 0.04 in Rain Light Rain
10:09 PM 46.4 °F 41.1 °F 42.8 °F 87% 29.67 in 8.0 mi SSW 11.5 mph - 0.00 in Rain Light Rain
10:51 PM 46.0 °F 39.9 °F 41.0 °F 83% 29.68 in 10.0 mi SSW 13.8 mph 21.9 mph 0.01 in   Overcast
11:51 PM 46.0 °F 40.6 °F 41.0 °F 83% 29.68 in 9.0 mi SW 11.5 mph - 0.00 in   Overcast